Hourly Weather Dzierżoniów

Today, 12 May, Wednesday

Time Temperature Precipitation Wind Pressure Humidity
00:00 +18°C° 0 mm 4 mps 730 mmHg 75%
01:00 +18°C° 0 mm 4 mps 730 mmHg 74%
02:00 +17°C° 0 mm 4 mps 730 mmHg 79%
03:00 +17°C° 0 mm 3 mps 730 mmHg 83%
04:00 +16°C° 0 mm 3 mps 731 mmHg 88%
05:00 +17°C° 0.1 mm 2 mps 731 mmHg 87%
06:00 +18°C° 0.1 mm 2 mps 731 mmHg 86%
07:00 +18°C° 0.1 mm 2 mps 731 mmHg 84%
08:00 +19°C° 0.1 mm 2 mps 731 mmHg 83%
09:00 +19°C° 0.1 mm 2 mps 731 mmHg 82%
10:00 +20°C° 0.1 mm 3 mps 731 mmHg 81%
11:00 +19°C° 0.3 mm 3 mps 731 mmHg 83%
12:00 +19°C° 0.3 mm 3 mps 731 mmHg 85%
13:00 +19°C° 0.3 mm 3 mps 731 mmHg 86%
14:00 +19°C° 0.6 mm 3 mps 731 mmHg 86%
15:00 +19°C° 0.6 mm 3 mps 731 mmHg 86%
16:00 +19°C° 0.6 mm 3 mps 730 mmHg 85%
17:00 +18°C° 2.2 mm 2 mps 730 mmHg 89%
18:00 +17°C° 2.2 mm 2 mps 730 mmHg 93%
19:00 +16°C° 2.2 mm 1 mps 729 mmHg 96%
20:00 +16°C° 1.1 mm 1 mps 729 mmHg 96%
21:00 +16°C° 1.1 mm 1 mps 729 mmHg 96%
22:00 +15°C° 1.1 mm 1 mps 729 mmHg 96%
23:00 +15°C° 0.1 mm 1 mps 729 mmHg 97%

Tomorrow, 13 May, Thursday

Time Temperature Precipitation Wind Pressure Humidity
00:00 +14°C° 0.1 mm 0 mps 729 mmHg 97%
01:00 +13°C° 0.1 mm 0 mps 728 mmHg 97%
02:00 +13°C° 0.1 mm 0 mps 728 mmHg 97%
03:00 +13°C° 0.1 mm 0 mps 728 mmHg 97%
04:00 +13°C° 0.1 mm 0 mps 727 mmHg 97%
05:00 +13°C° 0.1 mm 0 mps 727 mmHg 96%
06:00 +14°C° 0.1 mm 1 mps 727 mmHg 95%
07:00 +15°C° 0.1 mm 1 mps 727 mmHg 95%
08:00 +14°C° 0.3 mm 1 mps 727 mmHg 94%
09:00 +14°C° 0.3 mm 1 mps 727 mmHg 94%
10:00 +14°C° 0.3 mm 1 mps 727 mmHg 94%
11:00 +14°C° 1.2 mm 1 mps 727 mmHg 94%
12:00 +14°C° 1.2 mm 2 mps 726 mmHg 95%
13:00 +13°C° 1.2 mm 2 mps 726 mmHg 95%
14:00 +13°C° 1.3 mm 2 mps 726 mmHg 95%
15:00 +13°C° 1.3 mm 2 mps 726 mmHg 95%
16:00 +11°C° 1.3 mm 3 mps 727 mmHg 95%
17:00 +11°C° 0.6 mm 3 mps 727 mmHg 95%
18:00 +10°C° 0.6 mm 3 mps 727 mmHg 95%
19:00 +10°C° 0.6 mm 4 mps 727 mmHg 95%
20:00 +10°C° 1 mm 4 mps 727 mmHg 95%
21:00 +8°C° 1 mm 4 mps 728 mmHg 95%
22:00 +8°C° 1 mm 4 mps 728 mmHg 95%
23:00 +8°C° 0.5 mm 4 mps 728 mmHg 95%

Day after tomorrow, 14 May, Friday

Time Temperature Precipitation Wind Pressure Humidity
00:00 +8°C° 0.5 mm 4 mps 728 mmHg 94%
01:00 +8°C° 0.5 mm 4 mps 728 mmHg 94%
02:00 +8°C° 0.2 mm 4 mps 729 mmHg 93%
03:00 +8°C° 0.2 mm 3 mps 729 mmHg 93%
04:00 +8°C° 0.2 mm 3 mps 729 mmHg 92%
05:00 +8°C° 0 mm 4 mps 729 mmHg 90%
06:00 +8°C° 0 mm 4 mps 730 mmHg 87%
07:00 +10°C° 0 mm 4 mps 730 mmHg 85%
08:00 +11°C° 0 mm 4 mps 730 mmHg 81%
09:00 +10°C° 0 mm 5 mps 731 mmHg 77%
10:00 +12°C° 0 mm 5 mps 731 mmHg 72%
11:00 +13°C° 0 mm 5 mps 731 mmHg 71%
12:00 +13°C° 0 mm 5 mps 731 mmHg 69%
13:00 +14°C° 0 mm 5 mps 731 mmHg 67%
14:00 +14°C° 0.1 mm 4 mps 731 mmHg 67%
15:00 +14°C° 0.1 mm 3 mps 731 mmHg 67%
16:00 +16°C° 0.1 mm 3 mps 731 mmHg 68%
17:00 +15°C° 0.1 mm 2 mps 731 mmHg 72%
18:00 +14°C° 0.1 mm 2 mps 731 mmHg 77%
19:00 +13°C° 0.1 mm 1 mps 732 mmHg 82%
20:00 +12°C° 0 mm 1 mps 732 mmHg 84%
21:00 +9°C° 0 mm 2 mps 732 mmHg 86%
22:00 +8°C° 0 mm 2 mps 732 mmHg 88%
23:00 +8°C° 0 mm 2 mps 732 mmHg 88%

15 May, Saturday

Time Temperature Precipitation Wind Pressure Humidity
00:00 +8°C° 0 mm 2 mps 732 mmHg 88%
01:00 +7°C° 0 mm 2 mps 732 mmHg 88%
02:00 +8°C° 0 mm 1 mps 732 mmHg 88%
03:00 +8°C° 0 mm 1 mps 732 mmHg 88%
04:00 +7°C° 0 mm 1 mps 732 mmHg 89%
05:00 +9°C° 0 mm 1 mps 733 mmHg 85%
06:00 +11°C° 0 mm 1 mps 733 mmHg 81%
07:00 +11°C° 0 mm 0 mps 733 mmHg 77%
08:00 +13°C° 0.1 mm 0 mps 733 mmHg 73%
09:00 +15°C° 0.1 mm 1 mps 733 mmHg 70%
10:00 +16°C° 0.1 mm 1 mps 733 mmHg 67%
11:00 +18°C° 0.4 mm 1 mps 733 mmHg 65%
12:00 +18°C° 0.4 mm 1 mps 732 mmHg 63%
13:00 +17°C° 0.4 mm 0 mps 732 mmHg 62%
14:00 +19°C° 0.6 mm 1 mps 732 mmHg 64%
15:00 +18°C° 0.6 mm 1 mps 732 mmHg 67%
16:00 +18°C° 0.6 mm 1 mps 732 mmHg 70%
17:00 +16°C° 0.8 mm 1 mps 732 mmHg 75%
18:00 +15°C° 0.8 mm 1 mps 732 mmHg 80%
19:00 +14°C° 0.8 mm 1 mps 732 mmHg 85%
20:00 +13°C° 0.6 mm 1 mps 732 mmHg 87%
21:00 +12°C° 0.6 mm 1 mps 732 mmHg 89%
22:00 +12°C° 0.6 mm 1 mps 732 mmHg 91%
23:00 +12°C° 0.6 mm 1 mps 732 mmHg 92%

16 May, Sunday

Time Temperature Precipitation Wind Pressure Humidity
00:00 +12°C° 0.6 mm 2 mps 733 mmHg 93%
01:00 +10°C° 0.6 mm 2 mps 733 mmHg 94%
02:00 +11°C° 0.2 mm 1 mps 733 mmHg 95%
03:00 +11°C° 0.2 mm 1 mps 733 mmHg 95%
04:00 +11°C° 0.2 mm 1 mps 733 mmHg 95%
05:00 +11°C° 0 mm 1 mps 733 mmHg 94%
06:00 +12°C° 0 mm 1 mps 733 mmHg 92%
07:00 +12°C° 0 mm 1 mps 733 mmHg 90%
08:00 +13°C° 0.2 mm 1 mps 733 mmHg 87%
09:00 +13°C° 0.2 mm 2 mps 734 mmHg 83%
10:00 +14°C° 0.2 mm 2 mps 734 mmHg 80%
11:00 +14°C° 0.6 mm 2 mps 733 mmHg 81%
12:00 +13°C° 0.6 mm 3 mps 733 mmHg 82%
13:00 +13°C° 0.6 mm 3 mps 733 mmHg 82%
14:00 +14°C° 0.4 mm 2 mps 733 mmHg 82%
15:00 +14°C° 0.4 mm 2 mps 733 mmHg 82%
16:00 +14°C° 0.4 mm 2 mps 733 mmHg 81%
17:00 +14°C° 0.1 mm 2 mps 733 mmHg 82%
18:00 +13°C° 0.1 mm 1 mps 733 mmHg 83%
19:00 +13°C° 0.1 mm 1 mps 733 mmHg 85%
20:00 +12°C° 0 mm 2 mps 733 mmHg 86%
21:00 +9°C° 0 mm 2 mps 733 mmHg 87%
22:00 +8°C° 0 mm 2 mps 733 mmHg 89%
23:00 +8°C° 0 mm 2 mps 733 mmHg 90%

17 May, Monday

Time Temperature Precipitation Wind Pressure Humidity
00:00 +7°C° 0 mm 2 mps 733 mmHg 90%
01:00 +7°C° 0 mm 2 mps 733 mmHg 91%
02:00 +7°C° 0 mm 2 mps 733 mmHg 92%
03:00 +6°C° 0 mm 2 mps 733 mmHg 92%
04:00 +6°C° 0 mm 2 mps 733 mmHg 93%
05:00 +8°C° 0 mm 2 mps 733 mmHg 90%
06:00 +9°C° 0 mm 2 mps 733 mmHg 86%
07:00 +10°C° 0 mm 2 mps 733 mmHg 83%
08:00 +12°C° 0 mm 3 mps 733 mmHg 76%
09:00 +13°C° 0 mm 3 mps 733 mmHg 68%
10:00 +15°C° 0 mm 4 mps 733 mmHg 61%
11:00 +17°C° 0 mm 3 mps 733 mmHg 59%
12:00 +17°C° 0 mm 3 mps 733 mmHg 57%
13:00 +18°C° 0 mm 2 mps 733 mmHg 55%
14:00 +18°C° 0.4 mm 3 mps 733 mmHg 60%
15:00 +17°C° 0.4 mm 3 mps 733 mmHg 64%
16:00 +17°C° 0.4 mm 3 mps 733 mmHg 69%
17:00 +16°C° 0.2 mm 3 mps 733 mmHg 75%
18:00 +14°C° 0.2 mm 2 mps 733 mmHg 80%
19:00 +13°C° 0.2 mm 2 mps 733 mmHg 86%
20:00 +12°C° 0.1 mm 2 mps 733 mmHg 88%
21:00 +10°C° 0.1 mm 2 mps 733 mmHg 91%
22:00 +9°C° 0.1 mm 2 mps 734 mmHg 93%
23:00 +9°C° 0 mm 2 mps 734 mmHg 93%
Show more

We Need Your Consent

Meteoprog and our Service Providers may store and access personal data such as cookies, device identifiers or other similar technologies on your device and process such data to personalise content and ads, as well as provide social media features and to analyse the traffic.

  • Store and/or access information on your device

    Cookies, device identifiers or other information can be stored or accessed on your device for the purposes indicated above.

  • Personalised ads and content, ad and content measurement, audience insights, and products development

    Ads and content can be personalised based on a profile. More data can be added to better personalise ads and content. Ad and content performance can be measured. Insights about the audience who saw the ads and content can be derived. Such data can be used to develop or improve user’s experience, systems and software.

By clicking ‘I Agree’ you will allow the use of indicated cookies, device identifiers, web beacons or other similar technologies. Your settings can be changed in the browser on your device.

For certain purposes, legitimate interests may be relied on, rather than consent. You can read more about this in our Privacy and Cookie Policy.